Location: Alpine Heights
(32.8181°N, 116.7809°W)
Time: 23:58:11
(UTC+00:00)

ATLAS 5 CENTAUR R/B - Pass Details

Date: 14 April 2021
Orbit: 516 x 1141 km, 63.3° (Epoch: 02 May)

Event Time Altitude Azimuth Distance (km) Brightness Sun altitude
Rises 12:26:35 0° 322° (NW) 3,447 5.2 -11.3°
Reaches altitude 10° 12:29:00 10° 317° (NW) 2,597 4.5 -10.8°
Maximum altitude 12:34:54 49° 245° (WSW) 1,281 2.8 -9.6°
Drops below altitude 10° 12:41:37 10° 172° (S) 2,938 4.9 -8.3°
Sets 12:44:30 0° 167° (SSE) 3,937 5.6 -7.7°
